COSMOS 1275 DEB, 12664

Orbit data source: Space-Track

COSMOS 1275 DEB, 12664 is space debris in LEO originally from a launch on Thu, 04 Jun 1981 UTC launched from the Plesetsk Missile And Space Complex (PKMTR). Debris objects in space refer to the collection of defunct objects orbiting the Earth. Examples of debris include non-operational satellites, rocket bodies, and fragments generated from explosions, collisions, or faulty payload assembly.

Loading next visibility...
Identifier
12664, 1981-053U
Orbit
LEO
Country
Flag of CISCIS
Related business
Manufacturer
Unknown
Mission
Spacecraft
Bus & Motor
Unknown
Mass
Unknown
Launch date (UTC)
1981-06-04 (45 years ago)
Launch vehicle
Unknown
Launch site
Plesetsk Missile And Space Complex (PKMTR)
Object type
Payload
Rocket body
Debris
Shape & HBR
Unknown shape, 0.3 m
Radar Cross Section
Medium (>0.1 m² and <1 m²)

Expand to show TLE details & history
Last TLE update: 10 hours ago

TLE from 10 hours ago
0 COSMOS 1275 DEB
1 12664U 81053U   26106.12868642  .00000326  00000-0  32055-3 0  9997
2 12664  82.8911 317.4244 0078959  91.6584  27.0107 13.74431590233682
Epoch: 2026-04-16T03:05Z
TLE epoch observation values (Epoch: 2026-04-16T03:05:18.506Z)
Latitude
60.22794°
Longitude
-125.70865°
Altitude
942.253 km
Speed
7.412 km/s
True Right ascension
08h 19m 35s
True Declination
60° 04' 60"
Sunlit
Object was in daylight at epoch
Visualization orbit readout
Latitude
Unknown
Longitude
Unknown
Altitude
Unknown
Speed
Unknown
Apparent Right ascension
Unknown
Apparent Declination
Unknown
Sunlit
N/A
Visualization observer readout
Local Sidereal Time
19:49:46
Azimuth
Unknown
Elevation
Unknown
Doppler factor
Unknown
Orbital elements
Apogee altitude
1,038.961 km
Perigee altitude
922.749 km
Semi-major axis
7,358.992 km
Eccentricity
0.0079
Inclination
82.8911°
RAAN
317.4244°
Arg. of periapsis
91.6584°
True anomaly
27.42526°
Mean anomaly
27.0107°
Eccentric anomaly
27.21762°
Mean motion
3.43808 °/min
Orbital period
104.71 mins
BSTAR
0.00032055
Loading maneuver chart data...
Computing Atmospheric mass density...
Loading historical data...
Loading historical data...
Loading historical data...
Loading historical data...
Loading historical data...
Loading historical data...
Loading historical data...

Documentation

Showing up to 5 results
|